• în România
  • Lista ţărilor
  • Pe 7 zile
  • Temperatura apei
  • Hartă satelitară
  • Meteo pe hartă
  • Widget-uri
  • user-avatar
    Intrare

    Meteo pe oră la Sisak

    Astăzi, 15 Decembrie, Vineri

    Timp Temperatura Precipitaţii Vânt Presiune Umiditate
    00:00 +9°C° 0 mm 3 m/s 744 mmHg 82%
    01:00 +8°C° 0 mm 2 m/s 743 mmHg 85%
    02:00 +9°C° 0,2 mm 3 m/s 743 mmHg 83%
    03:00 +10°C° 0,2 mm 4 m/s 743 mmHg 80%
    04:00 +10°C° 0,2 mm 4 m/s 742 mmHg 77%
    05:00 +9°C° 0 mm 5 m/s 742 mmHg 76%
    06:00 +10°C° 0 mm 5 m/s 742 mmHg 75%
    07:00 +10°C° 0 mm 5 m/s 741 mmHg 73%
    08:00 +10°C° 0 mm 5 m/s 741 mmHg 71%
    09:00 +12°C° 0 mm 5 m/s 742 mmHg 69%
    10:00 +13°C° 0 mm 5 m/s 742 mmHg 67%
    11:00 +14°C° 0 mm 5 m/s 742 mmHg 64%
    12:00 +14°C° 0 mm 5 m/s 742 mmHg 62%
    13:00 +15°C° 0 mm 4 m/s 741 mmHg 59%
    14:00 +14°C° 0 mm 3 m/s 741 mmHg 65%
    15:00 +13°C° 0 mm 2 m/s 741 mmHg 70%
    16:00 +12°C° 0 mm 1 m/s 741 mmHg 75%
    17:00 +12°C° 1,1 mm 1 m/s 741 mmHg 79%
    18:00 +10°C° 1,1 mm 2 m/s 740 mmHg 84%
    19:00 +9°C° 1,1 mm 3 m/s 740 mmHg 88%
    20:00 +7°C° 2,9 mm 4 m/s 740 mmHg 86%
    21:00 +6°C° 2,9 mm 5 m/s 740 mmHg 85%
    22:00 +5°C° 2,9 mm 5 m/s 740 mmHg 84%
    23:00 +5°C° 1,3 mm 5 m/s 740 mmHg 83%

    Mâine, 16 Decembrie, Sâmbătă

    Timp Temperatura Precipitaţii Vânt Presiune Umiditate
    00:00 +4°C° 1,3 mm 4 m/s 740 mmHg 83%
    01:00 +4°C° 1,3 mm 4 m/s 740 mmHg 83%
    02:00 +4°C° 0,8 mm 3 m/s 741 mmHg 84%
    03:00 +5°C° 0,8 mm 2 m/s 741 mmHg 85%
    04:00 +5°C° 0,8 mm 1 m/s 742 mmHg 86%
    05:00 +5°C° 0,2 mm 1 m/s 742 mmHg 87%
    06:00 +5°C° 0,2 mm 1 m/s 743 mmHg 88%
    07:00 +4°C° 0,2 mm 0 m/s 743 mmHg 89%
    08:00 +5°C° 0,2 mm 1 m/s 744 mmHg 88%
    09:00 +6°C° 0,2 mm 1 m/s 744 mmHg 86%
    10:00 +6°C° 0,2 mm 1 m/s 745 mmHg 85%
    11:00 +6°C° 0,1 mm 1 m/s 745 mmHg 83%
    12:00 +7°C° 0,1 mm 1 m/s 746 mmHg 80%
    13:00 +7°C° 0,1 mm 1 m/s 746 mmHg 78%
    14:00 +7°C° 0 mm 1 m/s 746 mmHg 80%
    15:00 +7°C° 0 mm 1 m/s 747 mmHg 82%
    16:00 +6°C° 0 mm 1 m/s 747 mmHg 84%
    17:00 +6°C° 0,1 mm 1 m/s 748 mmHg 85%
    18:00 +6°C° 0,1 mm 1 m/s 748 mmHg 86%
    19:00 +6°C° 0,1 mm 1 m/s 749 mmHg 87%
    20:00 +5°C° 0,1 mm 1 m/s 749 mmHg 87%
    21:00 +5°C° 0,1 mm 1 m/s 750 mmHg 87%
    22:00 +5°C° 0,1 mm 1 m/s 750 mmHg 88%
    23:00 +4°C° 0 mm 1 m/s 751 mmHg 86%

    Poimâine, 17 Decembrie, Duminică

    Timp Temperatura Precipitaţii Vânt Presiune Umiditate
    00:00 +4°C° 0 mm 1 m/s 751 mmHg 85%
    01:00 +3°C° 0 mm 2 m/s 752 mmHg 83%
    02:00 +4°C° 0 mm 1 m/s 752 mmHg 84%
    03:00 +3°C° 0 mm 1 m/s 753 mmHg 84%
    04:00 +2°C° 0 mm 0 m/s 753 mmHg 85%
    05:00 +2°C° 0 mm 0 m/s 754 mmHg 86%
    06:00 +3°C° 0 mm 1 m/s 754 mmHg 87%
    07:00 +2°C° 0 mm 1 m/s 755 mmHg 88%
    08:00 +3°C° 0 mm 1 m/s 756 mmHg 84%
    09:00 +4°C° 0 mm 1 m/s 756 mmHg 81%
    10:00 +4°C° 0 mm 1 m/s 757 mmHg 78%
    11:00 +5°C° 0 mm 1 m/s 757 mmHg 75%
    12:00 +6°C° 0 mm 1 m/s 757 mmHg 71%
    13:00 +6°C° 0 mm 1 m/s 757 mmHg 67%
    14:00 +6°C° 0 mm 1 m/s 757 mmHg 71%
    15:00 +5°C° 0 mm 1 m/s 758 mmHg 74%
    16:00 +4°C° 0 mm 1 m/s 758 mmHg 77%
    17:00 +4°C° 0 mm 1 m/s 759 mmHg 79%
    18:00 +3°C° 0 mm 1 m/s 759 mmHg 81%
    19:00 +3°C° 0 mm 1 m/s 760 mmHg 83%
    20:00 +3°C° 0 mm 1 m/s 760 mmHg 83%
    21:00 +2°C° 0 mm 1 m/s 761 mmHg 83%
    22:00 +2°C° 0 mm 1 m/s 761 mmHg 83%
    23:00 +2°C° 0 mm 1 m/s 762 mmHg 83%

    18 Decembrie, Luni

    Timp Temperatura Precipitaţii Vânt Presiune Umiditate
    00:00 +2°C° 0 mm 1 m/s 762 mmHg 82%
    01:00 +1°C° 0 mm 1 m/s 762 mmHg 81%
    02:00 +1°C° 0 mm 1 m/s 762 mmHg 80%
    03:00 +1°C° 0 mm 1 m/s 762 mmHg 79%
    04:00 +1°C° 0 mm 1 m/s 762 mmHg 78%
    05:00 +1°C° 0 mm 1 m/s 762 mmHg 78%
    06:00 +1°C° 0 mm 1 m/s 762 mmHg 77%
    07:00 +1°C° 0 mm 1 m/s 762 mmHg 76%
    08:00 +1°C° 0 mm 2 m/s 762 mmHg 71%
    09:00 +2°C° 0 mm 2 m/s 762 mmHg 67%
    10:00 +3°C° 0 mm 2 m/s 761 mmHg 62%
    11:00 +4°C° 0 mm 2 m/s 761 mmHg 59%
    12:00 +5°C° 0 mm 2 m/s 760 mmHg 56%
    13:00 +5°C° 0 mm 3 m/s 759 mmHg 53%
    14:00 +5°C° 0 mm 2 m/s 759 mmHg 59%
    15:00 +4°C° 0 mm 2 m/s 759 mmHg 66%
    16:00 +5°C° 0 mm 1 m/s 759 mmHg 72%
    17:00 +4°C° 0 mm 1 m/s 759 mmHg 75%
    18:00 +4°C° 0 mm 1 m/s 760 mmHg 77%
    19:00 +3°C° 0 mm 1 m/s 760 mmHg 80%
    20:00 +3°C° 0 mm 1 m/s 760 mmHg 81%
    21:00 +3°C° 0 mm 1 m/s 761 mmHg 83%
    22:00 +2°C° 0 mm 1 m/s 761 mmHg 84%
    23:00 +2°C° 0 mm 1 m/s 761 mmHg 85%

    19 Decembrie, Marţi

    Timp Temperatura Precipitaţii Vânt Presiune Umiditate
    00:00 +2°C° 0 mm 1 m/s 762 mmHg 86%
    01:00 +2°C° 0 mm 1 m/s 762 mmHg 86%
    02:00 +2°C° 0 mm 1 m/s 762 mmHg 86%
    03:00 +2°C° 0 mm 1 m/s 762 mmHg 86%
    04:00 +1°C° 0 mm 1 m/s 763 mmHg 86%
    05:00 0°C° 0 mm 0 m/s 763 mmHg 85%
    06:00 0°C° 0 mm 0 m/s 763 mmHg 85%
    07:00 0°C° 0 mm 0 m/s 764 mmHg 84%
    08:00 +2°C° 0 mm 1 m/s 764 mmHg 80%
    09:00 +3°C° 0 mm 1 m/s 765 mmHg 75%
    10:00 +4°C° 0 mm 1 m/s 765 mmHg 71%
    11:00 +5°C° 0 mm 1 m/s 765 mmHg 69%
    12:00 +6°C° 0 mm 1 m/s 765 mmHg 66%
    13:00 +6°C° 0 mm 1 m/s 765 mmHg 64%
    14:00 +5°C° 0 mm 0 m/s 765 mmHg 69%
    15:00 +4°C° 0 mm 0 m/s 765 mmHg 73%
    16:00 +3°C° 0 mm 0 m/s 766 mmHg 78%
    17:00 +3°C° 0 mm 0 m/s 766 mmHg 79%
    18:00 +2°C° 0 mm 0 m/s 767 mmHg 80%
    19:00 +2°C° 0 mm 0 m/s 767 mmHg 81%
    20:00 +2°C° 0 mm 0 m/s 767 mmHg 82%
    21:00 +2°C° 0 mm 0 m/s 768 mmHg 83%
    22:00 +2°C° 0 mm 0 m/s 768 mmHg 84%
    23:00 +2°C° 0 mm 0 m/s 768 mmHg 85%

    20 Decembrie, Miercuri

    Timp Temperatura Precipitaţii Vânt Presiune Umiditate
    00:00 +2°C° 0 mm 0 m/s 768 mmHg 86%
    01:00 +3°C° 0 mm 1 m/s 768 mmHg 87%
    02:00 +3°C° 0 mm 1 m/s 768 mmHg 87%
    03:00 +2°C° 0 mm 0 m/s 768 mmHg 88%
    04:00 +2°C° 0 mm 0 m/s 768 mmHg 88%
    05:00 +1°C° 0 mm 0 m/s 767 mmHg 89%
    06:00 +1°C° 0 mm 0 m/s 767 mmHg 89%
    07:00 +1°C° 0 mm 0 m/s 767 mmHg 90%
    08:00 +3°C° 0 mm 1 m/s 767 mmHg 87%
    09:00 +4°C° 0 mm 1 m/s 767 mmHg 83%
    10:00 +4°C° 0 mm 1 m/s 768 mmHg 80%
    11:00 +5°C° 0 mm 1 m/s 767 mmHg 77%
    12:00 +6°C° 0 mm 1 m/s 767 mmHg 75%
    13:00 +7°C° 0 mm 1 m/s 766 mmHg 72%
    14:00 +6°C° 0 mm 1 m/s 766 mmHg 75%
    15:00 +5°C° 0 mm 1 m/s 766 mmHg 79%
    16:00 +4°C° 0 mm 0 m/s 766 mmHg 82%
    17:00 +5°C° 0 mm 1 m/s 766 mmHg 82%
    18:00 +4°C° 0 mm 1 m/s 766 mmHg 83%
    19:00 +4°C° 0 mm 1 m/s 766 mmHg 83%
    20:00 +4°C° 0 mm 1 m/s 767 mmHg 83%
    21:00 +5°C° 0 mm 1 m/s 767 mmHg 82%
    22:00 +5°C° 0 mm 1 m/s 767 mmHg 82%
    23:00 +5°C° 0,1 mm 1 m/s 767 mmHg 81%
    Arată mai mult